timestamp,gas_concentrations,,corrected_fluxes_and_quality_flags,,,,,,,,,,storage_terms,,,turbulence,,,footprint,,
ISOdate,CO2_1_1_1,H2O_1_1_1,Tau_1_1_1,QcTau_1_1_1,H_1_1_1,QcH_1_1_1,LE_1_1_1, QcLE_1_1_1,Fc_1_1_1, QcFc_1_1_1,E_1_1_1, QcE_1_1_1,Sa_1_1_1,Sw_1_1_1,Sc_1_1_1,ustar_1_1_1,MO_length_1_1_1,ZL_1_1_1,Fetchmax_1_1_1,Fetch70_1_1_1,Fetch90_1_1_1
yyyymmddHHMM,[µmol+1mol_a-1],[mmol+1mol_a-1],[kg+1m-1s-2],[#],[W+1m-2],[#],[W+1m-2],[#],[µmol+1s-1m-2],[#],[mmol+1s-1m-2],[#],[W+1m-2],[W+1m-2],[µmol+1s-1m-2],[m+1s-1],[m],[#],[m],[m],[m]
201809070030,394.63175190369083,10.170342732330770,1.36650366484035515E-002,1,-50.463730772222263,1,75.026931072605194,1,2.8240176666687025,1,1.6896371006569115,1,-9999.,-9999.,-9999.,0.10880361352802789,2.1609311376732228,9.9956910349571562,454.14294577477233,3068.0000000000000,-9999.
201809070100,395.53440538549916,10.584362503722611,1.63521189456397528E-002,1,2.2558259269767342,2,9.6416049587129340,1,-0.15034402945824732,2,0.21675984278264690,1,-40.862224783199721,14.417174055462146,0.70665854700611630,0.11865267545183952,-62.700964210883285,-0.34449230999625990,284.96292294450717,925.00000000000000,2136.0000000000000
201809070130,398.52940007806689,10.593635688116775,1.11804584207352044E-002,1,-18.617322551168460,1,25.193597444153141,1,2.8204830639377749,1,0.56584662815521802,1,-23.152749194710587,0.32446446661216172,2.3536552515390268,9.79246362628942296E-002,4.2715660673547564,5.0566934139394428,262.31456967925305,1862.0000000000000,7517.0000000000000
201809070200,399.83968483023727,10.358086118153924,1.69438067951216478E-002,1,-7.7869105844528281,0,15.163850934154476,0,1.1183906009704849,1,0.34038814295769043,0,-13.439435325696449,-8.2647606325671319,1.0319973172830530,0.12041073162591064,18.988495012411210,1.1375309094207764,227.89284202139987,2046.0000000000000,9900.0000000000000
201809070230,401.89259642182628,9.9672995813076479,2.58666372900900193E-002,0,-13.282468674038974,0,10.370600041257628,2,1.7193596886678761,0,0.23274078711545956,2,-5.3188033190139858,-13.726664169834423,1.6183195315492169,0.14869860750415803,20.964849837123065,1.0302959557455191,304.49987890410284,2896.0000000000000,-9999.
201809070300,402.44009623577938,9.2280930853453569,2.09008835863223920E-002,0,-10.052989250541261,0,19.092162434783216,0,1.7126974925862712,0,0.42841769966922033,0,-3.1127551995052118,-25.981673269054195,0.43181487890116638,0.13361294052033068,20.093446664281593,1.0749773476342652,406.05175781865069,4007.0000000000000,-9999.
201809070330,402.77840996284073,8.9468790272968963,7.12860212849696171E-003,0,-9.5000605727813277,0,14.346380069668017,0,1.4786683267064791,0,0.32196741207849239,0,3.1650256745533896,-9.8789006759363538,0.26672320173319647,7.80425483216186516E-002,4.2372060661378894,5.0976987342246201,1049.1906857565541,8509.0000000000000,-9999.
201809070400,400.13411131391240,8.2593898117895126,2.00540461660752732E-003,1,-0.53170989017088799,1,2.7286292696338013,1,9.10912939387583942E-002,0,6.12586952490992848E-002,1,8.4714410817309833,-24.110872330218584,-2.0820000985192295,4.14151360259991524E-002,11.312577503179536,1.9093791838269449,3452.8049819537632,-9999.,-9999.
201809070430,399.83344059578508,7.4968468927222176,3.81150826861283837E-004,1,-0.78207552780584311,0,5.2640450096170408,2,0.10913487669598085,0,0.11821164033248095,2,6.4678302298839325,-26.713124486105123,-0.23653323961171765,1.80604397005506949E-002,0.63780223490447607,33.866297133993335,27407.577527550617,-9999.,-9999.
201809070500,400.12845737063174,7.2828001690483095,1.27636127927173958E-002,1,-1.3435247714613261,1,2.2047889412275699,2,1.26593366377913269E-002,1,4.95119026034041773E-002,2,0.10703595258422498,-7.4988670253467600,0.23210065830830970,0.10450444520102552,71.931425854520768,0.30028599799599937,464.90429871674775,4806.0000000000000,-9999.
201809070530,401.58588538799364,7.8110108935452010,1.37845393895165685E-002,1,-4.5100372952315491,2,0.49697039101108431,2,0.25402317790382689,2,1.11561240527271784E-002,2,-8.8123511783358790,18.536787576951841,1.1481461999405880,0.10854188756038401,24.010637238172059,0.89960128028840347,566.46901356219746,6048.0000000000000,-9999.
201809070600,398.16605419103848,7.6509049952558605,1.50724512570823478E-003,1,-9.70370524445125920E-002,2,-1.7593607055992913,2,3.64008633910940169E-002,2,-3.95133756776835238E-002,2,11.365780002909682,-5.6066975488977011,-2.6896372611143331,3.59203465123473231E-002,40.447579653627237,0.53402453706678021,1679.4857695039479,-9999.,-9999.
201809070630,395.42368136958777,8.6827242212111369,1.37567387664664954E-002,0,-6.4595530349601997,1,-4.1394600215358812,2,0.27554046342455801,1,-9.30078481982457295E-002,2,10.257922972368394,36.058744829952929,-2.1533240441260060,0.10862864896761085,16.807353036632446,1.2851517995083312,769.80145429558365,8155.0000000000000,-9999.
201809070700,396.61399629374159,8.6292697856093987,1.12737175908933888E-002,0,0.46711443236255418,2,-5.6171771351033373,2,0.47009829102140727,2,-0.12621746266373804,2,1.3963968452567002,-1.8675242264459413,0.93442769286399163,9.83479566267940059E-002,-172.47790899521698,-0.12523342917265420,544.15279894771299,1978.0000000000000,4931.0000000000000
201809070730,397.16242099490768,8.5456402798004287,1.47721452307607703E-002,1,-18.869664037415781,1,15.345752390758241,1,1.5603312000951579,1,0.34479825801228775,1,-1.3432604768301519,-2.9225558425205951,0.43062294983547356,0.11256373350379585,6.4016315014408720,3.3741398571814543,448.41593597811215,3583.0000000000000,-9999.
201809070800,396.90546585998140,9.1720733658535636,1.30867421250604717E-003,1,8.14901726820146527E-002,2,-0.55777811774108277,0,-9.15935912060770463E-002,2,-1.25212041590486121E-002,0,-21.635721424498744,21.985599261073535,-0.20244429630715394,3.34510724872605913E-002,-38.908713167567797,-0.55514557644133544,188.27411586201427,594.00000000000000,1345.0000000000000
201809070830,397.15172660869882,9.5371499208668453,1.99448494918362919E-003,2,-2.9187259773242067,1,0.59500861433903618,1,0.35926671818308453,1,1.33590041418351693E-002,1,3.6509173012532350,12.802186094577413,0.19388589638264786,4.13131537330725870E-002,2.0463614010753952,10.555320281475629,3028.8096801546840,-9999.,-9999.
201809070900,398.98757237049000,9.7182997434929703,2.42201657433556532E-002,1,-3.5403836499571280,1,1.0484915586658641,1,0.50880821395272946,1,2.35456522251952134E-002,1,5.2307253447846556,6.3452716940190026,1.4440900893061810,0.14403661777830823,71.492657993998719,0.30212892632713645,252.91047864221150,2452.0000000000000,-9999.
201809070930,398.67555861974262,9.5870846133795045,3.10357882776684281E-002,1,4.6751068324327880,2,-0.48078759457533282,2,-0.10665220486477148,2,-1.07969646149244092E-002,2,0.14524547238698898,-4.5945851833658722,-0.24534914633558472,0.16307169140824487,-78.546964205828885,-0.27499471454298535,191.78801856745667,650.00000000000000,1545.0000000000000
201809071000,398.07200768285907,9.4640479700523201,3.93077400195029295E-003,1,0.62448274186108021,2,-2.0416915857760491,1,-2.99753635891120834E-004,2,-4.58533922030761737E-002,1,1.8112776934251398,-4.3068520070123020,-0.47448308408881235,5.80400916792797317E-002,-26.512599320264968,-0.81470699040399219,338.94096808073743,1015.0000000000000,2223.0000000000000
201809071030,396.66096148979494,9.1508440146391692,9.93209617683691801E-003,1,-1.7649155154341511,1,3.9531953568601912,2,-0.25888935908404748,1,8.88292495267536397E-002,2,12.434190287089496,-10.937992942698125,-1.1072848261191806,9.23374861099964805E-002,37.775229557874077,0.57180327565997746,696.67405955508457,7912.0000000000000,-9999.
201809071100,401.64448150788201,9.3351074790953934,5.54203311774455459E-003,2,-2.7392388468672944,2,4.3242512221761347,1,1.1625474222491865,0,9.71487533680706894E-002,1,-4.4728297991376404,6.4398270124607775,3.9128886690252496,6.89581729310774771E-002,10.136725476212876,2.1308656380886677,1393.6282366652949,-9999.,-9999.
201809071130,403.53800192693114,9.2788386441155719,2.98001740942896616E-003,1,-6.8742519200316536,1,15.265012781784161,1,2.6128293866704442,1,0.34288664697083432,1,-4.0098583441290829,-1.9681870193539022,1.4877221635669235,5.05487794916200939E-002,1.5910684991732504,13.575782570784208,3161.1443965267417,-9999.,-9999.
201809071200,402.88626417807092,8.9787050217429236,9.05311514030760107E-003,0,-11.518907491171460,0,9.3052309413000689,0,1.2769043902252104,0,0.20896176793576884,0,-6.2621466744318379,-10.512851327469201,-0.51264700787010753,8.80498683131223925E-002,5.0186745968979123,4.3039251864129930,1308.2477059838302,-9999.,-9999.
201809071230,402.79159762696622,9.2326923708827842,4.39595998769128568E-002,0,-24.707159920018199,0,31.683292494362000,0,2.4956974853142473,0,0.71142530243194113,0,-2.2417388554483884,8.9026455966396281,-7.45079398463559806E-002,0.19397566813124040,25.022492597913857,0.86322335456703503,313.14456094344678,3067.0000000000000,-9999.
201809071300,405.26748044122536,9.3209451364392120,2.79772785433849459E-002,1,-7.6571028121392262,0,22.624876998927956,0,1.3570621768698463,0,0.50794576947970638,0,-3.7439354479433566,3.0959949619146996,1.9499933381642420,0.15469699414532087,40.957428425670258,0.52737686007801454,264.80532726021397,2634.0000000000000,-9999.
201809071330,404.38950926272526,9.7393511598925109,2.33570621785278015E-002,1,11.533399204713147,1,46.454348400396576,1,-0.57527066943371763,1,1.0437455498498447,1,18.539239762896045,14.625782686065953,-0.68955626977227058,0.14155640504566006,-20.836876681155250,-1.0366236903218282,180.67820714033508,544.00000000000000,1197.0000000000000
201809071400,403.42095272471653,10.351957576061253,4.78956332532930878E-002,0,25.411233280148718,0,50.257099822472213,0,-2.1538386105302543,0,1.1299292256518696,0,15.656898525571837,21.350949023504342,-0.75895222448269828,0.20296393045654892,-27.881165093175650,-0.77471654888937691,75.134530062478945,137.36988388352248,205.80511812776876
201809071430,401.37393334167979,10.918051746112543,0.20771718839958014,1,60.152886204991319,0,66.122678362727399,0,-5.9315324220629773,0,1.4874844839061570,0,13.575101432954375,19.680692897105963,-1.6009422448117483,0.42312790499883240,-106.74109994048889,-0.20235879161862297,114.73537253546971,209.77285396506480,314.27796085847802
201809071500,397.34042044455674,10.805370465791428,0.15268605558322509,1,56.969194391680752,0,56.517939059928587,0,-4.8705091022011278,0,1.2720371030249540,0,11.543530294851820,-3.9100834752004832,-3.1501495241557929,0.36301857123205394,-71.191751027730888,-0.30340593802203691,109.26059996319935,199.76322361379911,299.28171059881953
201809071530,396.67534863120858,10.180601077442683,0.23319293018681711,1,89.509020531755056,0,171.83830779536873,0,-10.964988364607775,0,3.8705996954148714,0,18.758994122720896,-21.604083248696778,-0.51801568840414003,0.44918165908179780,-85.841077786883389,-0.25162778190677032,109.25737710807844,199.75733120676117,299.27288269933950
201809071600,397.34900556223306,9.3312220756285651,0.26293281951118930,0,97.340962291281429,0,199.89942481814739,0,-10.178460219788054,0,4.5059611490209566,0,17.220405355359276,-29.273816484087487,0.52335033500595751,0.47750403637915745,-94.818402624133611,-0.22780387986099937,107.65701553036764,196.83135983355939,294.88924440049044
201809071630,397.87414164026330,8.6496033138404638,0.39433512564123802,0,133.92327701105216,0,162.76749739729058,0,-11.556001838712454,0,3.6707095996025640,0,11.166316571443151,-23.442474174804122,0.40730159237770636,0.58517526088098770,-126.83435637625027,-0.17030086024897115,114.31593269987361,209.00598417212078,313.12905016667543
201809071700,396.81838656736608,8.5532117316940717,0.27215032731204952,1,114.86789231430157,0,154.51202188868308,0,-9.7969487765109378,0,3.4860441657246128,0,10.161891846564037,-3.3082712795854392,-0.81751511724737924,0.48652541707874153,-84.981357706695889,-0.25417339264630373,109.48255564407282,200.16902938756945,299.88968159542128
201809071730,397.94376549604442,7.8521802024871681,0.55546202909635156,0,150.01703758029237,0,265.36108066551088,0,-12.229876265937001,0,5.9892984139352885,0,9.0561254459423939,-24.015515421279488,0.87014547318683411,0.69548907988243769,-190.04761243332041,-0.11365572933771277,119.51486592313644,218.51129221895252,327.36973371473573
201809071800,398.14333043979678,7.8814287652540989,0.20304987316115164,0,115.00381060802033,0,147.07866369879338,0,-9.7557018143439933,0,3.3208205927893935,0,8.4422759462394694,1.0001096366089142,0.15407177068708483,0.42081773095882385,-54.908619011772956,-0.39338086422040131,90.515020347475712,165.49032548027853,247.93466385507350
201809071830,398.11819796163775,8.4102509354159185,0.26464271658199029,1,125.95033494732833,0,123.51257722342902,0,-10.691791748346699,0,2.7894995127969486,0,6.4097937848453705,18.057755202420147,-1.93822649995673280E-002,0.48072975179094946,-74.745164907853734,-0.28898190306528326,101.60519588427206,185.76670339161635,278.31237280607240
201809071900,397.80290461805600,8.8282714232687702,0.45055843665419415,0,146.05822691550696,0,181.02287774152481,0,-10.131341339714021,0,4.0897814105010033,0,8.1229523071013059,14.248620520901303,-0.24280447484948042,0.62776152021142972,-143.51849809267333,-0.15050324722637751,116.18076810542911,212.41549805222380,318.23712325384383
201809071930,396.70187828533210,8.9607776899323657,0.41934281896085229,0,122.84842739355427,0,152.30260167503280,0,-10.434422671989880,0,3.4417430725047820,0,5.5943376692698648,4.5108464061748208,-0.84701373417458781,0.60595338946065080,-153.44552701868824,-0.14076656660946085,126.73412696223606,231.71040386364217,347.14440815153057
201809072000,397.66470250629260,8.0998244727623057,0.30290903008763420,0,111.93522324841550,0,172.88091256231172,0,-9.2761285967207989,0,3.9074756274017863,0,4.1773817574454171,-29.283819612537872,0.74019203614813589,0.51509516730296456,-103.42593593055508,-0.20884510065737508,113.39301005901130,207.31858723354534,310.60102206870886
201809072030,398.15815281307960,7.9583384469130420,0.34335180726187853,0,90.027343832446419,0,153.28944253520572,0,-8.8504284754014186,0,3.4652466018470811,0,3.8828132914443576,-4.8078184152702290,0.37905290851552526,0.54860514563965257,-155.33570249084994,-0.13905367313269371,110.94361367031090,202.84030944009012,303.89174588505500
201809072100,398.37662909985704,7.9344517893115265,0.44841879350836128,0,83.705482114752385,0,193.64196147539340,0,-8.5495362748046624,0,4.3785128429154829,0,5.6169779890909144,-0.81067773069180415,0.16765801482012174,0.62726108051193397,-249.69669911293695,-8.65049481099884193E-002,125.31823476180629,229.12170134560043,343.26606005614326
201809072130,398.02235935236672,8.0763671950260818,0.38026044566428902,0,57.370115704416079,0,164.66985792549377,0,-8.3179561223847678,0,3.7235501081478013,0,0.85020718649478244,4.8151317977093555,-0.27180396972361814,0.57770728799241622,-284.60338145859981,-7.58950926348781751E-002,116.78686444831180,213.52363547152740,319.89731503703666
201809072200,398.64181881560035,7.8272895145372301,0.29849178923730296,0,32.932557017023953,0,110.65128927869921,0,-5.7696162628035639,0,2.5020916015544996,0,0.19389672245908293,-8.4509311199632080,0.47525792517746573,0.51181802550804978,-344.75566329850045,-6.26530679535147600E-002,113.73391272567335,207.94186603353262,311.53480728735747
201809072230,398.17248554931052,8.2595404612413219,0.27740541669461494,0,23.299884959344322,0,109.32405628450897,0,-5.4539293729984957,0,2.4717749287407687,0,-2.8575070016927939,14.673083029195867,-0.36021346730040643,0.49335710303705665,-436.44568497807313,-4.94906943600214033E-002,121.06866533244062,221.35213309806505,331.62583102063206
201809072300,397.24287909597285,10.791948339675884,0.18587153295588899,0,7.3726425449160731,0,170.82658560293353,1,-3.8045549365973415,0,3.8592255671442235,1,-18.667701345879944,86.278018611701867,-0.71550115585160368,0.40346209875445466,-754.66713945359754,-2.86218901960393728E-002,90.176885518728781,164.87210717075672,247.00846017328422
201809072330,396.93496504501246,11.054757048410041,0.16130397686874928,0,-12.781449830190464,1,50.734553493908116,0,-2.4623229740460624,0,1.1452600458185764,0,-18.520353376134896,8.9872210381939155,-0.23769248196112405,0.37532124203640405,350.46540425854681,6.16323315726340845E-002,92.636168606944793,169.36846100412757,253.74481755861743
201809080000,397.32333157078779,11.187867366121710,9.02546661045463966E-002,0,-13.225933976995256,1,44.353555272477813,0,-3.2189993500137599,1,1.0006939607277718,0,-12.261325155220325,4.5634155964405281,0.30039516178241904,0.28047477769327556,141.35566178565617,0.15280604771779877,82.686069711713969,151.17650680236693,226.48995515629579
